Location: Woodstock
(43.1330°N, 80.7500°W)
Time: 13:59:42
(UTC-04:00)

Daily predictions for brighter satellites

Satellite Brightness Start Highest point End
(mag) Time Altitude Azimuth Time Altitude Azimuth Time Altitude Azimuth
Cosmos 1862 Rocket 4.2 20:45:36 10° SSE 20:49:42 37° E 20:53:51 10° NNE
Cosmos 2263 Rocket 2.2 20:52:52 10° NNW 20:58:27 72° ENE 21:04:01 10° SSE
Cosmos 1634 Rocket 4.2 20:53:09 10° S 20:59:28 85° W 21:05:51 10° N
Cosmos 1503 Rocket 4.4 20:57:12 10° NNW 21:02:25 66° WSW 21:07:33 10° S
Spot 2 Rocket 3.9 20:58:11 10° S 21:03:15 70° WSW 21:08:21 10° NNW
Cosmos 968 Rocket 4.1 20:59:10 10° N 21:04:06 41° ENE 21:09:02 10° SE
USA 186 1.6 21:04:36 10° S 21:07:24 77° WSW 21:10:26 10° NNW
SAR-Lupe-4 3.7 21:04:03 10° SSE 21:07:34 59° ENE 21:11:08 10° N
Cosmos 1939 Rocket 3.4 21:03:59 10° SE 21:07:47 42° ENE 21:11:34 10° N
Resurs 1-3 4.2 21:04:52 10° S 21:09:11 59° W 21:13:32 10° NNW
Cosmos 2322 Rocket 2.5 21:05:33 10° SSW 21:11:09 72° WNW 21:16:47 10° NNE
Atlas Centaur 2 3.7 21:08:31 10° SW 21:13:54 28° S 21:19:23 13° ESE
Cosmos 1825 2.9 21:13:12 10° NNW 21:16:57 57° W 21:20:40 10° S
USA 234 3.5 21:12:08 11° ESE 21:18:25 63° NNE 21:24:51 10° NW
Abrixas rocket 3.9 21:15:33 10° WNW 21:18:32 31° N 21:21:31 10° ENE
Cosmos 2360 Rocket 2.3 21:13:22 10° S 21:18:50 54° ESE 21:24:21 10° NNE
Cosmos 1655 Rocket 4.1 21:14:02 10° N 21:20:28 88° W 21:26:49 10° S
SJ-11-01 4.3 21:15:52 10° SSE 21:20:28 66° ENE 21:25:07 10° N
COSMOS 2428 3.7 21:16:39 10° SSE 21:21:12 25° ESE 21:25:47 10° NE
Intercosmos 25 Rocket 3.6 21:18:41 10° SSW 21:21:58 68° WNW 21:26:27 10° N
Meteor 1-29 3.0 21:19:08 10° NNE 21:22:35 59° E 21:25:59 10° S
Envisat 3.0 21:18:21 10° SSE 21:23:26 81° ENE 21:28:32 10° N
SAR-Lupe-1 4.0 21:21:19 10° SSE 21:24:54 83° ENE 21:28:30 10° NNW
Lacrosse 4 Rocket 3.3 21:21:38 10° NW 21:25:22 28° WSW 21:29:09 10° S
CZ-4B DEB 2.5 21:22:32 11° SSE 21:25:28 80° ENE 21:28:31 10° N
Cosmos 1408 3.9 21:22:07 10° NNW 21:25:36 40° W 21:29:02 10° SSW
Helios 1B rocket 2.4 21:22:12 10° NNE 21:26:20 84° ESE 21:30:26 10° SSW
Cosmos 1867 3.6 21:20:53 10° NNW 21:26:22 77° NE 21:30:53 15° SE
Milstar 3 4.4 21:23:09 10° WSW 21:29:19 22° SSW 21:33:52 12° SSE
ATLAS 5 CENTAUR R/B 2.5 21:23:58 10° NW 21:29:59 86° SW 21:35:40 14° SSE
H-2A R/B 3.8 21:28:32 12° E 21:30:56 16° ENE 21:33:50 10° NNE
Cosmos 2221 Rocket 4.3 21:32:02 16° SE 21:34:52 32° E 21:38:49 10° NNE
Cosmos 2279 Rocket 4.2 21:29:38 10° SSW 21:35:52 75° W 21:42:07 10° N
Meteor 1-14 Rocket 4.5 21:30:40 10° N 21:36:14 53° ENE 21:40:44 16° SSE
Cosmos 2322 3.7 21:30:53 10° S 21:36:31 64° ESE 21:42:10 10° NNE
ARGOS 4.1 21:37:29 18° ESE 21:40:34 32° ENE 21:45:17 10° N
SL-16 R/B 3.6 21:36:37 10° SW 21:41:59 43° WNW 21:47:24 10° NNE
ERS-1 Rocket 3.0 21:42:02 18° SSE 21:45:45 63° ENE 21:50:44 10° N
SeaSat 1 3.7 21:44:57 17° E 21:47:39 28° NE 21:51:49 10° N
Resurs 01 Rocket 4.2 21:47:12 10° SW 21:50:26 19° W 21:53:41 10° NW
H-2A R/B 4.1 21:53:54 13° ENE 21:54:54 14° ENE 21:57:09 10° NNE
Cosmos 2237 Rocket 3.8 21:58:35 16° E 21:58:35 16° E 22:01:13 10° ENE
Cosmos 2333 4.5 21:53:22 10° S 21:58:47 46° ESE 22:04:16 10° NE
NOSS 3-1 (C) 3.9 21:54:38 12° S 21:59:16 33° ESE 22:04:49 10° NE
Cosmos 1908 Rocket 3.7 21:55:20 10° NNW 21:59:40 70° W 22:02:58 17° S
Cosmos 1844 Rocket 3.0 21:54:31 10° NNW 21:59:58 51° ENE 22:02:44 27° ESE
YAOGAN 6 2.7 21:58:12 24° S 22:00:18 76° WSW 22:03:55 10° NNW
Cosmos 2333 Rocket 3.2 22:00:04 24° ESE 22:00:39 25° ESE 22:05:14 10° NE
Cosmos 2278 Rocket 3.6 21:56:25 10° N 22:01:02 25° NE 22:03:38 18° E
SPOT 5 3.2 21:59:59 28° SE 22:02:01 46° ENE 22:06:23 10° N
SL-08 RB Rocket 4.5 22:01:17 28° ESE 22:02:48 36° ENE 22:06:57 10° N
USA 229 DEB 3.6 21:58:26 10° SSW 22:05:16 86° ESE 22:12:16 10° NE
USA 229 3.6 21:58:33 10° SSW 22:05:22 85° SE 22:12:22 10° NE
Sich 1 Rocket 4.1 22:01:39 10° NNW 22:06:05 61° W 22:09:37 16° S
CZ-4C R/B 3.7 22:00:40 10° NNW 22:07:05 38° NE 22:11:50 19° E
MetOp-A 4.1 22:04:25 26° SSE 22:07:31 72° ENE 22:12:52 10° N
Cosmos 1782 Rocket 3.5 22:09:54 10° N 22:14:18 84° W 22:16:24 31° S
Meteor 2-10 Rocket 4.4 22:09:47 10° SSW 22:15:30 57° WNW 22:21:11 10° N
NOSS 3-1 (A) 3.9 22:15:18 31° SE 22:15:57 32° ESE 22:21:27 10° NE
SPOT 1/Viking Rocket 3.9 22:16:34 34° ESE 22:18:25 49° ENE 22:23:26 10° N
Cosmos 1777 Rocket 3.9 22:14:08 10° NNW 22:19:27 88° WSW 22:21:49 34° SSE
Cosmos 2219 Rocket 2.4 22:20:01 33° SSE 22:21:56 45° ESE 22:27:16 10° NE
Okean 1-7 3.0 22:21:00 24° SSW 22:23:36 83° W 22:28:02 10° N
USA 245 4.0 22:21:27 34° SSE 22:23:53 74° ENE 22:28:36 10° N
Okean 2 Rocket 3.1 22:24:51 10° N 22:29:24 82° W 22:30:55 41° S
Landsat 7 4.4 22:29:26 37° E 22:30:13 40° ENE 22:34:39 10° N
Cosmos 1782 2.7 22:30:21 62° SSE 22:30:54 74° E 22:34:55 10° NNE
Cosmos 2084 3.7 22:33:21 10° NNW 22:37:04 45° NE 22:37:17 45° ENE
Cosmos 1633 3.2 22:36:16 10° N 22:39:16 43° NE 22:39:16 43° NE
Nimbus 7 Rocket 4.3 22:34:30 10° NNE 22:40:28 73° ESE 22:43:21 32° S
Terra 2.4 22:45:02 39° E 22:45:21 39° ENE 22:49:47 10° N
Cosmos 1346 Rocket 3.8 22:46:34 35° NE 22:46:34 35° NE 22:49:16 10° NNE
Meteor 1-27 Rocket 3.8 22:46:37 48° ESE 22:47:21 52° E 22:52:45 10° NNE
Abrixas rocket 3.5 22:52:36 10° WNW 22:55:06 39° NNW 22:55:06 39° NNW
Cosmos 1417 Rocket 4.4 22:58:13 42° S 23:00:32 85° E 23:06:56 10° N
USA 234 3.9 22:59:28 33° S 23:01:34 42° SW 23:07:44 10° WNW
Cosmos 1745 Rocket 4.1 22:55:16 10° N 23:01:34 63° E 23:02:51 52° SE
CARTOSAT-1 3.9 23:02:56 54° NE 23:02:56 54° NE 23:06:47 10° N
Atlas Centaur 2 3.8 22:56:33 10° WSW 23:02:01 28° SSW 23:02:01 28° SSW
Cosmos 2360 Rocket 4.3 22:58:29 10° WSW 23:03:09 26° NW 23:07:52 10° N
Cosmos 2151 Rocket 3.6 22:59:19 10° NNW 23:03:46 73° W 23:03:58 71° WSW
COSMOS 2428 3.6 22:59:38 10° SW 23:05:08 49° WNW 23:10:41 10° NNE
H-2A R/B 2.0 23:09:09 60° SSW 23:09:49 69° WSW 23:14:45 10° NNW
IGS 5A 4.0 23:10:49 52° NNE 23:10:49 52° NNE 23:14:14 10° N
Meteor 1-11 Rocket 3.5 23:07:25 10° N 23:12:59 88° E 23:13:39 70° SSE
Cosmos 1980 3.5 23:13:33 71° SSE 23:14:01 76° ESE 23:19:42 10° NNE
Cosmos 2298 Rocket 4.3 23:10:05 10° NNW 23:15:19 53° ENE 23:15:27 53° ENE
Cosmos 1844 4.1 23:10:00 10° NNW 23:15:29 53° WSW 23:16:28 47° SW
Cosmos 1606 4.0 23:17:05 35° W 23:17:12 35° WNW 23:20:43 10° N
Timation 1 Rocket 4.3 23:11:17 10° NNW 23:17:17 68° ENE 23:18:00 61° ESE
NOSS 0 Rocket 3.8 23:16:17 49° SSW 23:18:05 87° ESE 23:24:17 10° NNE
Okean 1 Rocket 3.6 23:14:18 10° N 23:17:55 51° NE 23:17:55 51° NE
Cosmos 1674 Rocket 3.9 23:20:35 61° N 23:20:35 61° N 23:24:11 10° N
SL-16 R/B 3.5 23:22:16 27° ENE 23:22:16 27° ENE 23:25:24 10° NE
ARGOS 4.3 23:18:59 29° SW 23:20:43 36° W 23:25:39 10° NNW
DMSP B5D2-2 4.0 23:17:22 10° NNE 23:22:41 87° WNW 23:23:06 77° SSW
SeaSat 1 3.0 23:24:45 45° WSW 23:24:58 45° WSW 23:29:43 10° NW
H-2A R/B 2.6 23:31:01 54° WNW 23:31:01 54° WNW 23:34:43 10° NNW
Cosmos 1937 Rocket 3.7 23:26:52 10° NNW 23:31:47 61° NE 23:31:47 61° NE
Cosmos 1536 3.9 23:30:34 10° N 23:33:19 42° N 23:33:19 42° N
SL-19 R/B 4.3 23:31:32 10° NNE 23:37:35 82° WNW 23:38:21 68° SW
Cosmos 990 Rocket 4.3 23:35:45 10° NNW 23:40:20 58° NE 23:40:20 58° NE
Cosmos 2237 Rocket 2.3 23:40:20 62° WSW 23:41:09 73° WNW 23:46:52 10° NNE
Cosmos 1844 Rocket 4.3 23:39:09 10° NW 23:43:28 23° WSW 23:44:25 22° WSW
Cosmos 1553 Rocket 4.5 23:41:44 41° SW 23:43:39 56° WNW 23:49:45 10° N
Cosmos 2333 Rocket 2.9 23:41:57 30° WSW 23:44:32 51° WNW 23:50:12 10° NNE
Cosmos 2278 Rocket 2.5 23:39:57 10° NNW 23:45:29 56° WSW 23:45:29 56° WSW
Cosmos 2150 Rocket 4.1 23:44:04 10° NNW 23:49:08 77° NNW 23:49:08 77° NNW
NOSS 3-1 (C) 4.3 23:44:12 10° WSW 23:49:51 47° NW 23:56:13 10° NNE
Iridium 4 Rocket 4.2 23:46:52 10° NNW 23:49:54 39° NW 23:49:54 39° NW
Cosmos 2315 Rocket 4.1 23:51:45 62° ENE 23:51:45 62° ENE 23:57:33 10° NNE
ASTEX 1 4.5 23:54:58 37° W 23:55:02 37° W 23:59:40 10° NNW
